Location: Baili�vre
(50.0696°N, 4.2409°E)
Time: 21:50:00
(UTC+00:00)

Cosmos 1864 Rocket - Pass Details

Date: 08 August 2020
Orbit: 952 x 996 km, 82.9° (Epoch: 21 September)

Event Time Altitude Azimuth Distance (km) Brightness Sun altitude
Exits shadow 22:53:20 45° 191° (S) 1,299 4.7 -23.0°
Maximum altitude 22:55:26 87° 277° (W) 977 4.4 -23.1°
Drops below altitude 10° 23:01:44 10° 9° (N) 2,738 7.8 -23.3°
Sets 23:04:16 0° 10° (N) 3,697 8.7 -23.4°
